カタログに戻る

STARLINK-38241

運用中通信SSO
NORAD 100225·PAYLOAD·🇺🇸 United States

打ち上げ Aug 4, 2026 から Vandenberg Space Force Base

Loading…

次のパス (今後24時間)

TLE

最新Source: Space-Track

元期: Sep 14, 2026, 22:30 UTC

1 A0225U 26177N   26257.93757575  .00037494  00000-0  68707-3 0  9990
2 A0225  97.2831 308.7479 0001734  85.2789 274.8660 15.49217784  7573

AllMySatでSTARLINK-38241をリアルタイム追跡

Download on the App Store